Princeton, MN

4:52 PM CST on December 07, 2019 (GMT -0600)
Princeton Municipal

Weather History for KPNM - May, 2019

Change the Weather History Date:

Wednesday, May 8, 2019

  Actual Average Record
Temperature  
Mean Temperature 43 °F -  
Max Temperature 53 °F 63 °F 78 °F (2005)
Min Temperature 33 °F 40 °F 33 °F (2019)
Degree Days  
Heating Degree Days 22    
Moisture  
Dew Point 33 °F    
Average Humidity 68    
Maximum Humidity 100    
Minimum Humidity 35    
Precipitation  
Precipitation 0.00 in - - ()
Sea Level Pressure  
Sea Level Pressure 30.02 in    
Wind  
Wind Speed 10 mph (NE)    
Max Wind Speed 23 mph    
Max Gust Speed 31 mph    
Visibility 8 miles    
Events Rain , Snow    
Averages and records for this station are not official NWS values.
T = Trace of Precipitation, MM = Missing Value Source: NWS Daily Summary

Daily Weather History Graph

Daily Weather History Graph

Search for Another Location

Airport or City:

Astronomy

May. 08, 2019 Rise Set
Actual Time 5:52 AM CDT 8:29 PM CDT
Civil Twilight 5:19 AM CDT 9:03 PM CDT
Nautical Twilight 4:36 AM CDT 9:46 PM CDT
Astronomical Twilight 3:47 AM CDT 10:35 PM CDT
Moon 8:45 AM CDT (5/8) No Moon Set
Length of Visible Light 15h 44m
Length of Day
14h 37m
Waxing Crescent, 16% of the Moon is Illuminated
May 8
Waxing Crescent
May 11
First Quarter
May 18
Full
May 26
Last Quarter
Jun 3
New

Hourly Weather History & Observations

Time (CDT) Temp. Windchill Dew Point Humidity Pressure Visibility Wind Dir Wind Speed Gust Speed Precip Events Conditions
12:15 AM 53.6 °F - 28.4 °F 38% 30.18 in 10.0 mi NE 8.1 mph - N/A   Clear
12:35 AM 51.8 °F - 28.4 °F 41% 30.17 in 10.0 mi NE 9.2 mph - N/A   Clear
12:55 AM 51.8 °F - 28.4 °F 41% 30.17 in 10.0 mi NE 6.9 mph - N/A   Mostly Cloudy
12:56 AM 51.8 °F - 28.4 °F 41% 30.17 in 10.0 mi NE 6.9 mph - N/A   Mostly Cloudy
1:15 AM 51.8 °F - 30.2 °F 44% 30.17 in 10.0 mi NE 5.8 mph - N/A   Overcast
1:35 AM 51.8 °F - 30.2 °F 44% 30.17 in 10.0 mi NE 6.9 mph - N/A   Mostly Cloudy
1:55 AM 50.0 °F - 30.2 °F 47% 30.16 in 10.0 mi NE 6.9 mph - N/A   Overcast
1:56 AM 50.0 °F - 30.2 °F 47% 30.16 in 10.0 mi NE 8.1 mph - N/A   Overcast
2:15 AM 50.0 °F - 30.2 °F 47% 30.16 in 10.0 mi NE 5.8 mph - N/A   Overcast
2:16 AM 50.0 °F - 30.2 °F 47% 30.16 in 10.0 mi NE 5.8 mph - N/A   Overcast
2:35 AM 50.0 °F - 30.2 °F 47% 30.16 in 10.0 mi NE 3.5 mph - N/A   Overcast
2:36 AM 50.0 °F - 30.2 °F 47% 30.16 in 10.0 mi NE 3.5 mph - N/A   Overcast
2:55 AM 48.2 °F - 30.2 °F 50% 30.16 in 10.0 mi NE 8.1 mph - N/A   Overcast
2:56 AM 48.2 °F - 30.2 °F 50% 30.16 in 10.0 mi NE 6.9 mph - N/A   Overcast
3:15 AM 48.2 °F - 30.2 °F 50% 30.16 in 10.0 mi NE 8.1 mph - N/A   Mostly Cloudy
3:35 AM 48.2 °F - 30.2 °F 50% 30.16 in 10.0 mi NE 5.8 mph - N/A   Mostly Cloudy
3:55 AM 48.2 °F - 30.2 °F 50% 30.16 in 10.0 mi Calm Calm - N/A   Overcast
3:56 AM 48.2 °F - 30.2 °F 50% 30.16 in 10.0 mi NE 3.5 mph - N/A   Overcast
4:15 AM 48.2 °F - 30.2 °F 50% 30.16 in 10.0 mi NE 5.8 mph - N/A   Overcast
4:35 AM 48.2 °F - 30.2 °F 50% 30.15 in 10.0 mi NNE 4.6 mph - N/A   Mostly Cloudy
4:55 AM 46.4 °F 44.3 °F 30.2 °F 53% 30.16 in 10.0 mi NE 4.6 mph - N/A   Overcast
4:56 AM 46.4 °F 43.5 °F 30.2 °F 53% 30.16 in 10.0 mi NE 5.8 mph - N/A   Overcast
5:15 AM 46.4 °F 43.5 °F 30.2 °F 53% 30.16 in 10.0 mi NE 5.8 mph - N/A   Overcast
5:35 AM 46.4 °F 43.5 °F 30.2 °F 53% 30.16 in 10.0 mi NE 5.8 mph - N/A   Overcast
5:36 AM 46.4 °F 43.5 °F 30.2 °F 53% 30.16 in 10.0 mi NE 5.8 mph - N/A   Overcast
5:55 AM 46.4 °F 43.5 °F 30.2 °F 53% 30.16 in 10.0 mi NE 5.8 mph - N/A   Overcast
6:15 AM 46.4 °F 43.5 °F 32.0 °F 57% 30.15 in 10.0 mi NE 5.8 mph - N/A   Overcast
6:35 AM 46.4 °F 42.4 °F 32.0 °F 57% 30.15 in 10.0 mi NE 8.1 mph - N/A   Overcast
6:55 AM 46.4 °F 42.9 °F 32.0 °F 57% 30.14 in 10.0 mi NE 6.9 mph - N/A   Overcast
6:56 AM 46.4 °F 43.5 °F 32.0 °F 57% 30.14 in 10.0 mi NE 5.8 mph - N/A   Overcast
7:15 AM 46.4 °F 44.3 °F 33.8 °F 62% 30.15 in 10.0 mi NE 4.6 mph - N/A   Overcast
7:35 AM 48.2 °F - 33.8 °F 58% 30.14 in 10.0 mi NE 6.9 mph - N/A   Overcast
7:55 AM 48.2 °F - 33.8 °F 58% 30.13 in 10.0 mi ENE 6.9 mph - N/A   Overcast
8:15 AM 50.0 °F - 32.0 °F 50% 30.12 in 10.0 mi NE 8.1 mph - N/A   Overcast
8:35 AM 48.2 °F - 32.0 °F 54% 30.12 in 10.0 mi ENE 8.1 mph - N/A   Overcast
8:36 AM 48.2 °F - 32.0 °F 54% 30.12 in 10.0 mi ENE 6.9 mph - N/A   Overcast
8:55 AM 48.2 °F - 30.2 °F 50% 30.11 in 10.0 mi NE 10.4 mph 16.1 mph N/A   Mostly Cloudy
9:15 AM 50.0 °F - 28.4 °F 43% 30.10 in 10.0 mi NE 11.5 mph 17.3 mph N/A   Scattered Clouds
9:35 AM 50.0 °F - 28.4 °F 43% 30.09 in 10.0 mi NE 9.2 mph - N/A   Clear
9:36 AM 50.0 °F - 28.4 °F 43% 30.09 in 10.0 mi NE 10.4 mph 17.3 mph N/A   Clear
9:55 AM 51.8 °F - 26.6 °F 38% 30.09 in 10.0 mi NE 10.4 mph - N/A   Scattered Clouds
9:56 AM 51.8 °F - 26.6 °F 38% 30.09 in 10.0 mi NE 10.4 mph - N/A   Scattered Clouds
10:15 AM 51.8 °F - 26.6 °F 38% 30.07 in 10.0 mi NE 9.2 mph - N/A   Mostly Cloudy
10:35 AM 51.8 °F - 24.8 °F 35% 30.07 in 10.0 mi NE 10.4 mph - N/A   Overcast
10:36 AM 51.8 °F - 24.8 °F 35% 30.07 in 10.0 mi NE 10.4 mph - N/A   Overcast
10:55 AM 51.8 °F - 24.8 °F 35% 30.07 in 10.0 mi NE 9.2 mph 18.4 mph N/A   Overcast
11:15 AM 51.8 °F - 24.8 °F 35% 30.06 in 10.0 mi NE 8.1 mph 17.3 mph N/A   Mostly Cloudy
11:35 AM 51.8 °F - 24.8 °F 35% 30.06 in 10.0 mi ENE 10.4 mph - N/A   Scattered Clouds
11:36 AM 51.8 °F - 24.8 °F 35% 30.06 in 10.0 mi ENE 9.2 mph - N/A   Scattered Clouds
11:55 AM 50.0 °F - 26.6 °F 40% 30.05 in 10.0 mi ENE 15.0 mph 24.2 mph N/A Rain Light Rain
12:15 PM 48.2 °F - 33.8 °F 58% 30.04 in 10.0 mi East 15.0 mph 24.2 mph N/A Rain Rain
12:35 PM 46.4 °F 40.1 °F 35.6 °F 66% 30.02 in 10.0 mi NE 15.0 mph 24.2 mph N/A Rain Light Rain
12:36 PM 46.4 °F 39.2 °F 35.6 °F 66% 30.02 in 10.0 mi NE 18.4 mph 24.2 mph N/A Rain Light Rain
12:55 PM 46.4 °F 41.1 °F 37.4 °F 71% 30.01 in 10.0 mi NE 11.5 mph 20.7 mph N/A Rain Rain
1:15 PM 46.4 °F 41.9 °F 39.2 °F 76% 30.01 in 10.0 mi NE 9.2 mph 16.1 mph N/A Rain Light Rain
1:16 PM 46.4 °F 41.5 °F 39.2 °F 76% 30.01 in 10.0 mi NE 10.4 mph 17.3 mph N/A Rain Light Rain
1:35 PM 44.6 °F 39.7 °F 39.2 °F 81% 30.00 in 7.0 mi NE 9.2 mph 17.3 mph N/A Rain Rain
1:55 PM 44.6 °F 38.1 °F 39.2 °F 81% 29.98 in 10.0 mi NNE 13.8 mph 19.6 mph N/A Rain Light Rain
2:15 PM 44.6 °F 38.4 °F 39.2 °F 81% 29.97 in 10.0 mi NNE 12.7 mph 21.9 mph N/A Rain Rain
2:16 PM 44.6 °F 38.1 °F 39.2 °F 81% 29.97 in 10.0 mi NNE 13.8 mph 23.0 mph N/A Rain Rain
2:35 PM 44.6 °F 36.9 °F 39.2 °F 81% 29.95 in 10.0 mi NNE 18.4 mph 26.5 mph N/A Rain Rain
2:36 PM 44.6 °F 36.9 °F 39.2 °F 81% 29.96 in 10.0 mi NNE 18.4 mph 26.5 mph N/A Rain Rain
2:55 PM 42.8 °F 34.5 °F 39.2 °F 87% 29.94 in 7.0 mi NNE 18.4 mph 25.3 mph N/A Rain Rain
3:15 PM 42.8 °F 34.5 °F 39.2 °F 87% 29.93 in 10.0 mi NNE 18.4 mph 28.8 mph N/A Rain Rain
3:16 PM 42.8 °F 34.5 °F 39.2 °F 87% 29.93 in 7.0 mi NNE 18.4 mph 28.8 mph N/A Rain Rain
3:35 PM 42.8 °F 35.1 °F 39.2 °F 87% 29.93 in 10.0 mi NNE 16.1 mph 25.3 mph N/A Rain Rain
3:55 PM 42.8 °F 33.8 °F 39.2 °F 87% 29.92 in 10.0 mi NNE 21.9 mph 31.1 mph N/A Rain Rain
3:56 PM 42.8 °F 33.5 °F 39.2 °F 87% 29.92 in 10.0 mi NNE 23.0 mph 31.1 mph N/A Rain Rain
4:15 PM 41.0 °F 31.4 °F 37.4 °F 87% 29.90 in 10.0 mi NNE 21.9 mph 31.1 mph N/A Rain Rain
4:16 PM 41.0 °F 31.6 °F 37.4 °F 87% 29.90 in 10.0 mi NNE 20.7 mph 31.1 mph N/A Rain Rain
4:35 PM 41.0 °F 32.8 °F 37.4 °F 87% 29.91 in 10.0 mi NNE 16.1 mph 25.3 mph N/A Rain Rain
4:55 PM 39.2 °F 30.8 °F 35.6 °F 87% 29.91 in 3.0 mi NNE 15.0 mph 25.3 mph N/A Rain Rain
4:56 PM 39.2 °F 30.5 °F 35.6 °F 87% 29.91 in 3.0 mi NNE 16.1 mph 25.3 mph N/A Rain Rain
5:15 PM 37.4 °F 27.2 °F 35.6 °F 93% 29.92 in 10.0 mi NNE 19.6 mph 25.3 mph N/A Rain Light Rain
5:16 PM 37.4 °F 27.8 °F 35.6 °F 93% 29.92 in 10.0 mi NNE 17.3 mph 25.3 mph N/A Rain Light Rain
5:35 PM 37.4 °F 28.2 °F 35.6 °F 93% 29.91 in 5.0 mi NNE 16.1 mph 24.2 mph N/A Rain Rain
5:55 PM 35.6 °F 26.2 °F 33.8 °F 93% 29.92 in 5.0 mi NNE 15.0 mph 20.7 mph N/A Rain Rain
6:15 PM 35.6 °F 26.2 °F 33.8 °F 93% 29.92 in 4.0 mi NNE 15.0 mph 21.9 mph N/A Rain Rain
6:16 PM 35.6 °F 26.6 °F 33.8 °F 93% 29.92 in 3.0 mi NNE 13.8 mph 21.9 mph N/A Rain Rain
6:35 PM 35.6 °F 26.2 °F 33.8 °F 93% 29.92 in 4.0 mi North 15.0 mph 24.2 mph N/A   Overcast
6:36 PM 35.6 °F 26.6 °F 33.8 °F 93% 29.92 in 4.0 mi North 13.8 mph 24.2 mph N/A   Overcast
6:55 PM 35.6 °F 25.5 °F 33.8 °F 93% 29.92 in 1.8 mi NNE 17.3 mph 24.2 mph N/A Snow Light Snow
7:15 PM 33.8 °F 23.9 °F 32.0 °F 93% 29.91 in 1.0 mi NNE 15.0 mph 24.2 mph N/A Snow Light Snow
7:35 PM 33.8 °F 22.8 °F 33.8 °F 100% 29.90 in 1.2 mi NNE 18.4 mph 24.2 mph N/A Snow Light Snow
7:36 PM 33.8 °F 22.8 °F 33.8 °F 100% 29.90 in 1.2 mi North 18.4 mph 24.2 mph N/A Snow Light Snow
7:55 PM 33.8 °F 23.5 °F 33.8 °F 100% 29.89 in 3.0 mi NNE 16.1 mph 26.5 mph N/A Snow Light Snow
8:15 PM 35.6 °F 24.8 °F 33.8 °F 93% 29.88 in 7.0 mi NNE 19.6 mph 26.5 mph N/A Snow Light Snow
8:16 PM 35.6 °F 24.8 °F 33.8 °F 93% 29.88 in 7.0 mi NNE 19.6 mph 26.5 mph N/A Snow Light Snow
8:35 PM 35.6 °F 24.8 °F 33.8 °F 93% 29.87 in 4.0 mi NNE 19.6 mph 27.6 mph N/A Rain Light Rain
8:55 PM 35.6 °F 25.9 °F 33.8 °F 93% 29.87 in 3.0 mi NNE 16.1 mph 26.5 mph N/A Rain Light Rain
9:15 PM 35.6 °F 26.2 °F 33.8 °F 93% 29.87 in 5.0 mi North 15.0 mph 24.2 mph N/A Rain Light Rain
9:16 PM 35.6 °F 26.2 °F 33.8 °F 93% 29.87 in 5.0 mi North 15.0 mph 24.2 mph N/A Rain Light Rain
9:35 PM 35.6 °F 25.5 °F 33.8 °F 93% 29.86 in 10.0 mi NNE 17.3 mph 26.5 mph N/A Rain Light Rain
9:36 PM 35.6 °F 25.2 °F 33.8 °F 93% 29.86 in 10.0 mi NNE 18.4 mph 26.5 mph N/A   Light Drizzle
9:55 PM 35.6 °F 25.5 °F 33.8 °F 93% 29.86 in 10.0 mi NNE 17.3 mph 25.3 mph N/A Rain Light Rain
10:15 PM 35.6 °F 25.2 °F 33.8 °F 93% 29.86 in 5.0 mi North 18.4 mph 29.9 mph N/A Rain Light Rain
10:16 PM 35.6 °F 25.9 °F 33.8 °F 93% 29.86 in 5.0 mi North 16.1 mph 29.9 mph N/A Rain Light Rain
10:35 PM 35.6 °F 27.5 °F 33.8 °F 93% 29.87 in 7.0 mi North 11.5 mph 21.9 mph N/A Rain Rain
10:36 PM 35.6 °F 27.5 °F 33.8 °F 93% 29.87 in 7.0 mi North 11.5 mph 21.9 mph N/A Rain Light Rain
10:55 PM 35.6 °F 25.2 °F 33.8 °F 93% 29.86 in 5.0 mi North 18.4 mph 23.0 mph N/A   Overcast
11:15 PM 35.6 °F 25.9 °F 33.8 °F 93% 29.85 in 7.0 mi North 16.1 mph 21.9 mph N/A Rain Light Rain
11:35 PM 35.6 °F 26.2 °F 33.8 °F 93% 29.85 in 4.0 mi North 15.0 mph 23.0 mph N/A   Overcast
11:55 PM 35.6 °F 27.1 °F 33.8 °F 93% 29.85 in 5.0 mi North 12.7 mph 25.3 mph N/A Rain Light Rain
11:56 PM 35.6 °F 27.5 °F 33.8 °F 93% 29.85 in 5.0 mi North 11.5 mph 25.3 mph N/A Rain Light Rain